User: anonymous   Login
Location: Rio Negrinho
(26.2394°S, 49.4999°W)
Time: 12:42:50
(UTC+00:00)
Language:

Envisat - Orbit

View from above orbital plane
View from above orbital plane
View from above satellite
View from above satellite

Ground track
Ground track

The orbit data is extracted from the following two-line orbital elements,

1 27386U 02009A   21271.20684358  .00000056  00000-0  31905-4 0  9999
2 27386  98.1575 260.0550 0001202  86.4231 284.2685 14.38043871 25843
Epoch (UTC): 28 September 2021 04:57:51
Eccentricity: 0.0001202
inclination: 98.1575°
perigee height: 764 km
apogee height: 766 km
right ascension of ascending node: 260.0550°
argument of perigee: 86.4231°
revolutions per day: 14.38043871
mean anomaly at epoch: 284.2685°
orbit number at epoch: 2584

The dashed part of the orbit path shows where the satellite is in the earth's shadow,  

DLR